{"data":{"norad_id":67151,"epoch":"2026-05-25T00:46:53.927904Z","epoch_age_seconds":79006,"freshness":"FRESH","line1":"1 67151U 25301U   26145.03256861  .00003096  00000+0  43469-3 0  9996","line2":"2 67151  51.8995  90.5206 0000917  70.3864 289.7198 14.79960331 25022","mean_motion":14.79960331,"eccentricity":9.17e-5,"inclination_deg":51.8995,"raan_deg":90.5206,"arg_perigee_deg":70.3864,"mean_anomaly_deg":289.7198,"bstar":0.00043469,"rev_number":2502,"period_min":97.299905263474,"perigee_km":628.8067576398,"apogee_km":630.09194897699,"semimajor_km":7007.5863533084,"source":"CELESTRAK","updated_at":"2026-05-25T13:38:06.777961Z"}}